Terminal Aerodrome Forecast
Issued by NWS Charleston, WV

Current Version | Previous Version | Graphics & Text | Print | Product List | Glossary On
Versions: 1 2 3 4 5 6 7 8 9 10 11 12 13 14 15 16 17 18 19 20 21 22 23 24 25
000
FTUS41 KRLX 230200 AAA
TAFEKN
TAF AMD
KEKN 230243Z 2303/2324 30019G24KT P6SM SKC
     FM230800 30011G17KT P6SM SKC
     FM232300 31008KT P6SM FEW150=

USA.gov is the U.S. government's official web portal to all federal, state and local government web resources and services.